• In Belarus
  • List of Countries
  • For 7 days
  • Water Temperature
  • Weather Map
  • Weather Widgets
  • user-avatar
    Login

    Hourly Weather Fontvieille

    Today, 17 November, Sunday

    Time Temperature Precipitation Wind Pressure Humidity
    00:00 +8°C° 0 mm 5 mps 749 mmHg 69%
    01:00 +7°C° 0 mm 4 mps 748 mmHg 69%
    02:00 +8°C° 0 mm 3 mps 748 mmHg 69%
    03:00 +8°C° 0 mm 2 mps 747 mmHg 68%
    04:00 +8°C° 0 mm 2 mps 747 mmHg 68%
    05:00 +8°C° 0 mm 2 mps 746 mmHg 68%
    06:00 +8°C° 0 mm 2 mps 746 mmHg 67%
    07:00 +9°C° 0 mm 2 mps 746 mmHg 65%
    08:00 +10°C° 0 mm 2 mps 746 mmHg 63%
    09:00 +12°C° 0 mm 2 mps 746 mmHg 61%
    10:00 +12°C° 0 mm 3 mps 746 mmHg 60%
    11:00 +12°C° 0 mm 3 mps 746 mmHg 59%
    12:00 +13°C° 0 mm 4 mps 746 mmHg 58%
    13:00 +12°C° 0 mm 4 mps 746 mmHg 62%
    14:00 +11°C° 0 mm 4 mps 747 mmHg 67%
    15:00 +10°C° 0 mm 5 mps 747 mmHg 72%
    16:00 +9°C° 0.1 mm 5 mps 747 mmHg 74%
    17:00 +8°C° 0.1 mm 5 mps 748 mmHg 76%
    18:00 +7°C° 0.1 mm 5 mps 748 mmHg 78%
    19:00 +6°C° 0 mm 5 mps 749 mmHg 76%
    20:00 +6°C° 0 mm 4 mps 749 mmHg 74%
    21:00 +6°C° 0 mm 4 mps 750 mmHg 72%
    22:00 +5°C° 0 mm 4 mps 750 mmHg 71%
    23:00 +5°C° 0 mm 4 mps 750 mmHg 70%

    Tomorrow, 18 November, Monday

    Time Temperature Precipitation Wind Pressure Humidity
    00:00 +5°C° 0 mm 3 mps 750 mmHg 69%
    01:00 +5°C° 0 mm 3 mps 750 mmHg 68%
    02:00 +5°C° 0 mm 3 mps 750 mmHg 67%
    03:00 +6°C° 0 mm 2 mps 750 mmHg 67%
    04:00 +5°C° 0 mm 3 mps 751 mmHg 66%
    05:00 +5°C° 0 mm 3 mps 751 mmHg 65%
    06:00 +5°C° 0 mm 3 mps 752 mmHg 64%
    07:00 +7°C° 0 mm 3 mps 752 mmHg 62%
    08:00 +7°C° 0 mm 4 mps 752 mmHg 61%
    09:00 +8°C° 0 mm 4 mps 752 mmHg 60%
    10:00 +9°C° 0.1 mm 5 mps 752 mmHg 59%
    11:00 +10°C° 0.1 mm 6 mps 752 mmHg 58%
    12:00 +11°C° 0.1 mm 7 mps 752 mmHg 57%
    13:00 +10°C° 1.2 mm 7 mps 751 mmHg 64%
    14:00 +8°C° 1.2 mm 7 mps 751 mmHg 72%
    15:00 +6°C° 1.2 mm 7 mps 751 mmHg 80%
    16:00 +6°C° 1.8 mm 8 mps 750 mmHg 81%
    17:00 +6°C° 1.8 mm 9 mps 750 mmHg 82%
    18:00 +5°C° 1.8 mm 10 mps 750 mmHg 84%
    19:00 +5°C° 1.3 mm 10 mps 750 mmHg 83%
    20:00 +4°C° 1.3 mm 11 mps 750 mmHg 82%
    21:00 +4°C° 1.3 mm 11 mps 750 mmHg 81%
    22:00 +4°C° 2.4 mm 11 mps 750 mmHg 82%
    23:00 +4°C° 2.4 mm 11 mps 750 mmHg 83%

    Day after tomorrow, 19 November, Tuesday

    Time Temperature Precipitation Wind Pressure Humidity
    00:00 +4°C° 2.4 mm 11 mps 751 mmHg 84%
    01:00 +5°C° 1.1 mm 10 mps 751 mmHg 84%
    02:00 +5°C° 1.1 mm 10 mps 751 mmHg 83%
    03:00 +5°C° 1.1 mm 9 mps 751 mmHg 83%
    04:00 +6°C° 0.4 mm 8 mps 751 mmHg 82%
    05:00 +6°C° 0.4 mm 8 mps 752 mmHg 81%
    06:00 +6°C° 0.4 mm 7 mps 752 mmHg 81%
    07:00 +8°C° 0.2 mm 6 mps 753 mmHg 81%
    08:00 +8°C° 0.2 mm 5 mps 753 mmHg 82%
    09:00 +8°C° 0.2 mm 5 mps 754 mmHg 83%
    10:00 +10°C° 0 mm 4 mps 754 mmHg 82%
    11:00 +11°C° 0 mm 4 mps 754 mmHg 82%
    12:00 +11°C° 0 mm 3 mps 754 mmHg 82%
    13:00 +11°C° 0 mm 3 mps 754 mmHg 83%
    14:00 +11°C° 0 mm 3 mps 754 mmHg 83%
    15:00 +11°C° 0 mm 3 mps 755 mmHg 84%
    16:00 +10°C° 0 mm 3 mps 755 mmHg 83%
    17:00 +10°C° 0 mm 3 mps 755 mmHg 81%
    18:00 +9°C° 0 mm 3 mps 756 mmHg 79%
    19:00 +9°C° 0.1 mm 3 mps 756 mmHg 79%
    20:00 +9°C° 0.1 mm 2 mps 756 mmHg 79%
    21:00 +9°C° 0.1 mm 2 mps 757 mmHg 78%
    22:00 +9°C° 0 mm 2 mps 757 mmHg 79%
    23:00 +9°C° 0 mm 3 mps 757 mmHg 79%

    20 November, Wednesday

    Time Temperature Precipitation Wind Pressure Humidity
    00:00 +9°C° 0 mm 3 mps 757 mmHg 79%
    01:00 +9°C° 0.1 mm 3 mps 757 mmHg 80%
    02:00 +8°C° 0.1 mm 4 mps 756 mmHg 81%
    03:00 +8°C° 0.1 mm 4 mps 756 mmHg 82%
    04:00 +10°C° 0.2 mm 4 mps 756 mmHg 82%
    05:00 +10°C° 0.2 mm 4 mps 756 mmHg 83%
    06:00 +10°C° 0.2 mm 4 mps 756 mmHg 84%
    07:00 +10°C° 0.2 mm 4 mps 757 mmHg 85%
    08:00 +11°C° 0.2 mm 4 mps 757 mmHg 86%
    09:00 +11°C° 0.2 mm 4 mps 757 mmHg 87%
    10:00 +11°C° 0.4 mm 3 mps 757 mmHg 88%
    11:00 +11°C° 0.4 mm 3 mps 757 mmHg 88%
    12:00 +11°C° 0.4 mm 3 mps 757 mmHg 88%
    13:00 +11°C° 0.3 mm 3 mps 756 mmHg 89%
    14:00 +12°C° 0.3 mm 2 mps 756 mmHg 90%
    15:00 +12°C° 0.3 mm 2 mps 756 mmHg 91%
    16:00 +12°C° 0.9 mm 2 mps 756 mmHg 92%
    17:00 +12°C° 0.9 mm 2 mps 756 mmHg 93%
    18:00 +11°C° 0.9 mm 1 mps 756 mmHg 94%
    19:00 +11°C° 1.1 mm 1 mps 756 mmHg 93%
    20:00 +10°C° 1.1 mm 2 mps 756 mmHg 92%
    21:00 +10°C° 1.1 mm 2 mps 756 mmHg 91%
    22:00 +10°C° 0.3 mm 2 mps 756 mmHg 91%
    23:00 +10°C° 0.3 mm 2 mps 756 mmHg 90%

    21 November, Thursday

    Time Temperature Precipitation Wind Pressure Humidity
    00:00 +11°C° 0.3 mm 1 mps 756 mmHg 90%
    01:00 +10°C° 0.1 mm 1 mps 755 mmHg 89%
    02:00 +9°C° 0.1 mm 2 mps 755 mmHg 88%
    03:00 +9°C° 0.1 mm 2 mps 755 mmHg 86%
    04:00 +9°C° 0.1 mm 2 mps 755 mmHg 87%
    05:00 +9°C° 0.1 mm 2 mps 755 mmHg 87%
    06:00 +9°C° 0.1 mm 2 mps 755 mmHg 87%
    07:00 +10°C° 0.2 mm 3 mps 755 mmHg 86%
    08:00 +10°C° 0.2 mm 3 mps 755 mmHg 85%
    09:00 +11°C° 0.2 mm 3 mps 755 mmHg 85%
    10:00 +11°C° 0.6 mm 3 mps 755 mmHg 87%
    11:00 +12°C° 0.6 mm 2 mps 754 mmHg 90%
    12:00 +12°C° 0.6 mm 2 mps 754 mmHg 93%
    13:00 +10°C° 1.1 mm 3 mps 754 mmHg 93%
    14:00 +10°C° 1.1 mm 3 mps 754 mmHg 93%
    15:00 +10°C° 1.1 mm 4 mps 753 mmHg 93%
    16:00 +10°C° 0.9 mm 4 mps 753 mmHg 93%
    17:00 +10°C° 0.9 mm 4 mps 754 mmHg 93%
    18:00 +10°C° 0.9 mm 4 mps 754 mmHg 93%
    19:00 +10°C° 2.5 mm 4 mps 754 mmHg 93%
    20:00 +10°C° 2.5 mm 4 mps 754 mmHg 94%
    21:00 +10°C° 2.5 mm 4 mps 754 mmHg 94%
    22:00 +10°C° 3.5 mm 4 mps 754 mmHg 95%
    23:00 +10°C° 3.5 mm 4 mps 754 mmHg 95%

    22 November, Friday

    Time Temperature Precipitation Wind Pressure Humidity
    00:00 +11°C° 3.5 mm 4 mps 753 mmHg 96%
    01:00 +11°C° 2.3 mm 4 mps 753 mmHg 96%
    02:00 +11°C° 2.3 mm 4 mps 753 mmHg 95%
    03:00 +11°C° 2.3 mm 4 mps 753 mmHg 95%
    04:00 +11°C° 2.3 mm 4 mps 753 mmHg 95%
    05:00 +11°C° 2.3 mm 4 mps 753 mmHg 96%
    06:00 +11°C° 2.3 mm 4 mps 753 mmHg 96%
    07:00 +10°C° 3.9 mm 5 mps 753 mmHg 97%
    08:00 +12°C° 3.9 mm 5 mps 753 mmHg 97%
    09:00 +12°C° 3.9 mm 5 mps 753 mmHg 98%
    10:00 +12°C° 1.8 mm 5 mps 753 mmHg 97%
    11:00 +12°C° 1.8 mm 5 mps 753 mmHg 95%
    12:00 +11°C° 1.8 mm 6 mps 753 mmHg 94%
    13:00 +11°C° 0.4 mm 6 mps 753 mmHg 92%
    14:00 +11°C° 0.4 mm 6 mps 752 mmHg 90%
    15:00 +11°C° 0.4 mm 6 mps 752 mmHg 88%
    16:00 +11°C° 0.6 mm 6 mps 752 mmHg 88%
    17:00 +11°C° 0.6 mm 6 mps 752 mmHg 89%
    18:00 +11°C° 0.6 mm 6 mps 752 mmHg 89%
    19:00 +11°C° 0.6 mm 6 mps 752 mmHg 89%
    20:00 +11°C° 0.6 mm 6 mps 752 mmHg 88%
    21:00 +11°C° 0.6 mm 6 mps 752 mmHg 88%
    22:00 +12°C° 1.3 mm 5 mps 752 mmHg 88%
    23:00 +12°C° 1.3 mm 5 mps 752 mmHg 88%
    Show more